Location: Lecco
(45.8566°N, 9.3977°E)
Time: 18:58:07
(UTC+02:00)

Courier 1B - Pass Details

Date: 27 August 2019
Orbit: 962 x 1209 km, 28.3° (Epoch: 15 October)

Event Time Altitude Azimuth Distance (km) Brightness Sun altitude
Rises 20:30:32 0° 246° (WSW) 3,779 11.4 -4.1°
Reaches altitude 10° 20:34:52 10° 221° (SW) 2,773 10.2 -4.9°
Maximum altitude 20:37:53 13° 194° (SSW) 2,497 9.6 -5.4°
Drops below altitude 10° 20:40:51 10° 167° (SSE) 2,716 9.5 -5.8°
Enters shadow 20:44:26 - 144° (SE) 3,480 9.9 -6.4°
